Find Starlink 31485

NORAD ID: 59308 Int'l Des: 2024-056 Owner: SPXS Country: US Constellation: starlink operational
LEOCIRCULAR

当前视图

正在加载3D地球...

About Starlink 31485

Starlink 31485 (NORAD 59308) is a starlink constellation satellite (v2 mini) launched Mar 24, 2024 by SPXS of US. It operates in LEO, CIRCULAR orbit with a mass of 730.00 kg.

关于 Starlink 31485

正在加载描述...

即将过境

Passes for default location (London). Set your location on the main map for personalized predictions.

高度历史

Loading altitude history...

两行轨道根数

1 59308U 24056N 26177.83521852 -.00000516 00000-0 -92205-5 0 9996
2 59308 43.0035 334.5732 0001574 262.7785 97.2888 15.27564280127847
Epoch: Jun 26, 2026 • Age: 19 hours

当前状态

高度 487.2 km
速度 7.63 km/s
星下点 42.54°N, 96.07°W
发射日期 Mar 24, 2024
运行时间 2.2 years
类型 internet

技术详情

分类 Payload
质量 730.00 kg
干质量 700.00 kg
总质量 730.00 kg
长度 0.30 m
直径 4.10 m
跨度 29.00 m
形状 Box + pan
制造商 SPXS
平台类型 Starlink V2M
阶段状态 In Orbit
所有者/国家 SPXS/US

Most Searched